Regional Weather Roundup
Issued by NWS

Home | Current Version | Previous Version | Graphics & Text | Print | Product List | Glossary On
Versions: 1 2 3 4 5 6 7 8 9 10 11 12 13 14 15 16 17 18 19 20 21 22 23 24 25 26 27 28 29 30 31 32 33 34 35 36 37 38 39 40 41 42 43 44 45 46 47 48 49 50
679
ASUS43 KLOT 270508
RWRIL

ILLINOIS REGIONAL WEATHER ROUNDUP
NATIONAL WEATHER SERVICE CHICAGO/ROMEOVILLE IL
1200 AM CDT WED JUL 27 2016

NOTE: "FAIR" INDICATES FEW OR NO CLOUDS BELOW 12,000 FEET WITH NO
SIGNIFICANT WEATHER AND/OR OBSTRUCTIONS TO VISIBILITY.

* THESE STATIONS ARE NOT UNDER NWS QUALITY CONTROL. THEY ALSO MAY NOT
  REPORT WEATHER SUCH AS PRECIPITATION OR FOG.

ILZ001-002-007-009-015-016-024-270600-
NORTHWEST ILLINOIS

CITY           SKY/WX    TMP DP  RH WIND       PRES   REMARKS
MOLINE         CLEAR     70  66  87 CALM      30.01S
STERLING*      CLEAR     68  67  96 CALM      30.02F
SAVANNA*       CLEAR     68  66  95 CALM      30.01F
$$

ILZ003-004-008-010-011-017-018-270600-
NORTH CENTRAL ILLINOIS

CITY           SKY/WX    TMP DP  RH WIND       PRES   REMARKS
ROCKFORD       CLEAR     73  66  78 CALM      30.02F
FREEPORT*      CLEAR     65  62  92 S3        30.03F
ROCHELLE*      CLEAR     65  64  98 CALM      30.03F
DE KALB*       CLEAR     73  65  76 CALM      30.04S
$$

ILZ005-006-012>014-019>023-270600-
NORTHEAST ILLINOIS

CITY           SKY/WX    TMP DP  RH WIND       PRES   REMARKS
CHICAGO-OHARE  CLEAR     73  64  73 S3        30.01S
CHICAGO-MIDWAY PTCLDY    79  62  56 S3        30.01S HX  80
AURORA         CLEAR     69  67  93 NW5       30.02S
LANSING*       CLEAR     70  64  81 S5        30.02S
JOLIET*        CLEAR     75  70  84 CALM      30.01F
WAUKEGAN       CLEAR     66  63  90 CALM      30.00F
DUPAGE AIRPORT CLEAR     72  64  76 CALM      30.02S
KANKAKEE*      CLEAR     71  69  94 CALM      30.03F
WHEELING       CLEAR     72  64  76 CALM      30.02S
MORRIS*        CLEAR     72  67  86 CALM      30.01S
ROMEOVILLE*    CLEAR     71  63  75 SE6       30.02S
NORTHERLY ISL    N/A     73  65  75 S5          N/A
$$

LMZ740>746-270600-
SOUTHERN LAKE MICHIGAN

STATION/POSITION SKY/WX   TEMP    WIND        PRES    VSBY  WAVE
                          AIR SEA DIR/SP/G                  HT/PER
                          (F)     (DEG/KT/KT) (MB)    (MI)  (FT/S)
SOUTHERN BUOY              75 76  200/  6/  6 1015.7R         0
WILMETTE HARBOR            71 69  210/  2/  2   N/A           0
HARRISON CRIB              76     190/  7/  7   N/A
BURNHAM HARBOR             73     160/  5       N/A
CALUMET HARBOR             76      80/  3/  4 1015.9
BURNS HARBOR               76      CALM  /  7 1016.9S
MICHIGAN CITY              74     130/  3/  3   N/A
MICHIGAN CITY 6N           75 77  160/  6/  6   N/A           0
ST. JOSEPH                 75 78  170/  2/  4 1016.2R         0
$$

ILZ025>027-034>036-040-047-049-050-058-095>099-270600-
WEST-CENTRAL ILLINOIS

CITY           SKY/WX    TMP DP  RH WIND       PRES   REMARKS
QUINCY         CLEAR     73  69  87 NE6       30.00F
GALESBURG*     CLEAR     68  67  96 CALM      30.03R
MACOMB*        CLEAR     69  67  94 CALM      30.03S
JACKSONVILLE*  PTCLDY    73  70  91 E3        30.00F
PITTSFIELD*    CLOUDY    73  72  97 CALM      30.02S
$$

ILZ028>032-037-038-041>044-048-051>054-059>061-270600-
CENTRAL ILLINOIS

CITY           SKY/WX    TMP DP  RH WIND       PRES   REMARKS
PONTIAC        CLEAR     72  72 100 CALM      30.03S
BLOOMINGTON    CLEAR     72  69  90 CALM      30.04
DECATUR        CLEAR     70  66  87 CALM      30.03S
PEORIA         CLEAR     75  71  87 NE3       30.01F
LACON*         CLEAR     71  69  92 CALM      30.01S
LINCOLN*       CLEAR     71  70  96 CALM      30.01F
SPRINGFIELD    PTCLDY    73  70  90 SE3       30.02S
TAYLORVILLE    CLOUDY    73  70  89 MISG      30.02S
$$

ILZ033-039-045-046-055>057-062-063-270600-
EAST-CENTRAL ILLINOIS

CITY           SKY/WX    TMP DP  RH WIND       PRES   REMARKS
CHAMPAIGN      CLEAR     69  66  90 E3        30.03F
MATTOON        CLEAR     71  67  87 CALM      30.01F
PARIS*         CLEAR     67  67 100 CALM      30.03S
$$

ILZ079-100>102-270600-
SOUTHWEST ILLINOIS

CITY           SKY/WX    TMP DP  RH WIND       PRES   REMARKS
ALTON          MOCLDY    73  73  98 NE3       30.00F
BELLEVILLE     PTCLDY    76  76 100 CALM      29.98F
CAHOKIA*       PTCLDY    76  74  93 CALM      29.99F
SPARTA*        PTCLDY    74  73  98 CALM      30.00F
$$

ILZ064>066-069>071-074>076-080>082-084>086-088>090-092>094-270600-
SOUTH-CENTRAL ILLINOIS

CITY           SKY/WX    TMP DP  RH WIND       PRES   REMARKS
CARBONDALE     MOCLDY    75  73  93 SE3       30.00S FOG
CAIRO*         MOCLDY    74  74 100 CALM      29.98F
EFFINGHAM*     PTCLDY    73  73 100 CALM      30.03S
MARION         MOCLDY    75  75 100 CALM      30.01S FOG
MT. VERNON     CLOUDY    73  70  88 MISG      30.00F
CENTRALIA*     CLOUDY    77  76  97 CALM      30.00F
SALEM*         PTCLDY    77  75  93 CALM      30.00F
METROPOLIS*    MOCLDY    74  73  97 CALM      29.99F FOG
$$

ILZ067-068-072-073-078-083-087-091-270600-
SOUTHEAST ILLINOIS

CITY           SKY/WX    TMP DP  RH WIND       PRES   REMARKS
LAWRENCEVILLE  PTCLDY    75  74  96 NE5       30.00F
FLORA*         PTCLDY    78  75  92 CALM      30.00F HX  80
FAIRFIELD*     PTCLDY    75  74  99 CALM      29.99S
HARRISBURG*    PTCLDY    74  74 100 CALM      30.00S FOG
ROBINSON*      FOG       71  71 100 CALM      30.01F VSB 3/4
CARMI*         CLEAR     73  73 100 CALM      29.99F FOG
$$

ABBREVIATIONS USED IN REMARKS
   TC - TEMPERATURE IN CELSIUS
  WCI - WIND CHILL INDEX
   HX - HEAT INDEX
  VSB - VISIBILITY
$$





USA.gov is the U.S. government's official web portal to all federal, state and local government web resources and services.